User: anonymous   Login
Location: Unspecified
(0.0000°N, 0.0000°E)
Time: 20:27:30
(UTC+01:00)
Language:

Cosmos 1315 Rocket - Orbit

View from above orbital plane
View from above orbital plane
View from above satellite
View from above satellite

Ground track
Ground track

The orbit data is extracted from the following two-line orbital elements,

1 12904U 81103B   14354.04934131  .00003168  00000-0  22956-3 0  6555
2 12904 081.1782 233.9664 0029406 174.4537 185.7016 15.03353268355962
Epoch (UTC): 20 December 2014 01:11:03
Eccentricity: 0.0029406
inclination: 81.1782°
perigee height: 536 km
apogee height: 577 km
right ascension of ascending node: 233.9664°
argument of perigee: 174.4537°
revolutions per day: 15.03353268
mean anomaly at epoch: 185.7016°
orbit number at epoch: 35596

The dashed part of the orbit path shows where the satellite is in the earth's shadow,  

DLR